User: anonymous   Login
Location: Baix
(44.7118°N, 4.7648°E)
Time: 01:19:48
(UTC+00:00)
Language:

Vanguard 1 Rocket - Orbit

View from above orbital plane
View from above orbital plane
View from above satellite
View from above satellite

Ground track
Ground track

The orbit data is extracted from the following two-line orbital elements,

1 00016U 58002A   22275.34296400 -.00000035  00000-0 -52672-4 0  9994
2 00016  34.2620 257.9986 2027124 166.7007 199.6343 10.48816539546709
Epoch (UTC): 02 October 2022 08:13:52
Eccentricity: 0.2027124
inclination: 34.2620°
perigee height: 651 km
apogee height: 4225 km
right ascension of ascending node: 257.9986°
argument of perigee: 166.7007°
revolutions per day: 10.48816539
mean anomaly at epoch: 199.6343°
orbit number at epoch: 54670

The dashed part of the orbit path shows where the satellite is in the earth's shadow,  

DLR